Regional Weather Roundup
Issued by NWS

Home | Current Version | Previous Version | Graphics & Text | Print | Product List | Glossary On
Versions: 1 2 3 4 5 6 7 8 9 10 11 12 13 14 15 16 17 18 19 20 21 22 23 24 25 26 27 28 29 30 31 32 33 34 35 36 37 38 39 40 41 42 43 44 45 46 47 48 49 50
000
ASUS45 KABQ 290401
RWRNM
NEW MEXICO REGIONAL WEATHER ROUNDUP
NATIONAL WEATHER SERVICE ALBUQUERQUE NM
1000 PM MDT THU MAY 28 2015

NOTE: "FAIR" MEANS FEW OR NO CLOUDS BELOW 12,000 FEET AGL WITH NO
       SIGNIFICANT WEATHER OR OBSTRUCTIONS TO VISION.

      THIS PRODUCT IS RELEASED AS TWO VERSIONS.  ONE VERSION NEAR
      THE TOP OF THE HOUR CONTAINING PRELIMINARY DATA FROM ALBUQUERQUE
      AND OTHER STATIONS.  A FINAL VERSION WITH ADDITIONAL DATA IS
      ISSUED ABOUT 10 MINUTES AFTER THE HOUR.

NMZ501-503-504-510>518-290500-
NORTHWEST PLATEAU/NORTHCENTRAL MOUNTAINS

CITY           SKY/WX    TMP DP  RH WIND       PRES   REMARKS
FARMINGTON     CLEAR     63  37  38 N15       30.09R
SANTA FE       CLEAR     63  27  25 N13       30.10R
TAOS           CLEAR     55  25  30 NW5       30.19R

$$
NMZ402-403-502-505>509-290500-
WESTCENTRAL MOUNTAINS/SOUTHWEST MOUNTAINS

CITY           SKY/WX    TMP DP  RH WIND       PRES   REMARKS
GALLUP         CLEAR     57  23  26 CALM      30.16R
GRANTS         CLEAR     64  23  21 W10       30.15R
SILVER CITY      N/A     61  16  17 NW10      30.09R

$$
NMZ407-409-411-412-290500-
SOUTHERN DESERTS

CITY           SKY/WX    TMP DP  RH WIND       PRES   REMARKS
LORDSBURG      FAIR      72  14  11 W9        30.00R
DEMING         CLEAR     76  18  11 W9        29.99R
ALAMOGORDO     CLEAR     68  19  15 SE9       29.95R
T OR C         CLEAR     78  17  10 W12       29.98R

$$
NMZ519>523-290500-
CENTRAL VALLEYS/CENTRAL HIGHLANDS

CITY           SKY/WX    TMP DP  RH WIND       PRES   REMARKS
ALBUQUERQUE    CLEAR     75  29  18 N9        30.04R
DOUBLE EAGLE   CLEAR     63  36  36 NW12      30.08R
MORIARTY ARPT  FAIR      54  31  42 NW7       30.10R
CLINES CORNERS CLEAR     61  22  22 NW12      30.13R
BELEN          FAIR      66  18  15 NW8       30.03R
SOCORRO        NOT AVBL

$$
NMZ524>526-539-540-290500-
SOUTHCENTRAL MOUNTAINS

CITY           SKY/WX    TMP DP  RH WIND       PRES   REMARKS
RUIDOSO        NOT AVBL

$$
NMZ527>531-290500-
NORTHEAST HIGHLANDS/NORTHEAST PLAINS

CITY           SKY/WX    TMP DP  RH WIND       PRES   REMARKS
LAS VEGAS      CLEAR     57  27  31 N8        30.13R
RATON          MOCLDY    56  45  66 NE8       30.11R
CLAYTON        CLOUDY    56  48  74 S7        30.04R

$$
NMZ532>537-290500-
EASTCENTRAL PLAINS

CITY           SKY/WX    TMP DP  RH WIND       PRES   REMARKS
TUCUMCARI      CLOUDY    64  56  75 E8        29.95R
CANNON AFB     NOT AVBL
CLOVIS AIRPORT CLOUDY    59  55  88 SW9       29.90F

$$
NMZ028-029-538-290500-
SOUTHEAST PLAINS

CITY           SKY/WX    TMP DP  RH WIND       PRES   REMARKS
ROSWELL        MOCLDY    67  55  65 S12       29.94R
ARTESIA        MOCLDY    68  55  64 SE17      29.95F
CARLSBAD       MOCLDY    68  55  63 E10       29.96R
HOBBS          CLOUDY    63  55  77 E13       30.02R


$$


USA.gov is the U.S. government's official web portal to all federal, state and local government web resources and services.